• Em Portugal
  • Lista de países
  • Para 7 dias
  • Temperatura da água
  • Mapas de satélite
  • Mapa do tempo
  • Widgets de tempo
  • user-avatar
    Iniciar Sessão

    Previsão horária em Natal

    Hoje, 22 Novembro, Quarta-feira

    Tempo Temperatura Precipitação Vento Pressão Humidade
    00:00 +27°C° 0 mm 5 m/s 758 mmHg 82%
    01:00 +26°C° 0 mm 5 m/s 758 mmHg 83%
    02:00 +26°C° 0,1 mm 5 m/s 758 mmHg 83%
    03:00 +26°C° 0,1 mm 5 m/s 757 mmHg 83%
    04:00 +26°C° 0 mm 5 m/s 757 mmHg 83%
    05:00 +27°C° 0 mm 5 m/s 758 mmHg 80%
    06:00 +27°C° 0 mm 5 m/s 758 mmHg 77%
    07:00 +28°C° 0 mm 6 m/s 758 mmHg 75%
    08:00 +29°C° 0 mm 6 m/s 758 mmHg 66%
    09:00 +32°C° 0 mm 6 m/s 759 mmHg 58%
    10:00 +34°C° 0 mm 6 m/s 759 mmHg 49%
    11:00 +34°C° 0 mm 6 m/s 758 mmHg 49%
    12:00 +34°C° 0 mm 6 m/s 758 mmHg 48%
    13:00 +34°C° 0 mm 6 m/s 758 mmHg 47%
    14:00 +34°C° 0 mm 6 m/s 757 mmHg 47%
    15:00 +34°C° 0 mm 6 m/s 757 mmHg 46%
    16:00 +34°C° 0 mm 5 m/s 757 mmHg 45%
    17:00 +33°C° 0 mm 5 m/s 757 mmHg 53%
    18:00 +30°C° 0 mm 4 m/s 758 mmHg 60%
    19:00 +28°C° 0 mm 4 m/s 758 mmHg 68%
    20:00 +28°C° 0 mm 4 m/s 758 mmHg 72%
    21:00 +27°C° 0 mm 4 m/s 758 mmHg 76%
    22:00 +27°C° 0 mm 4 m/s 759 mmHg 80%
    23:00 +27°C° 0 mm 4 m/s 759 mmHg 82%

    Amanhã, 23 Novembro, Quinta-feira

    Tempo Temperatura Precipitação Vento Pressão Humidade
    00:00 +26°C° 0 mm 4 m/s 758 mmHg 83%
    01:00 +26°C° 0 mm 4 m/s 758 mmHg 85%
    02:00 +26°C° 0 mm 4 m/s 758 mmHg 86%
    03:00 +26°C° 0 mm 4 m/s 758 mmHg 87%
    04:00 +26°C° 0 mm 4 m/s 758 mmHg 88%
    05:00 +26°C° 0 mm 4 m/s 758 mmHg 85%
    06:00 +27°C° 0 mm 4 m/s 758 mmHg 81%
    07:00 +28°C° 0 mm 4 m/s 759 mmHg 78%
    08:00 +30°C° 0 mm 5 m/s 759 mmHg 67%
    09:00 +33°C° 0 mm 5 m/s 759 mmHg 57%
    10:00 +35°C° 0 mm 6 m/s 759 mmHg 46%
    11:00 +35°C° 0 mm 6 m/s 759 mmHg 45%
    12:00 +36°C° 0 mm 6 m/s 759 mmHg 44%
    13:00 +36°C° 0 mm 7 m/s 759 mmHg 43%
    14:00 +35°C° 0 mm 7 m/s 758 mmHg 46%
    15:00 +35°C° 0 mm 7 m/s 758 mmHg 50%
    16:00 +34°C° 0 mm 7 m/s 757 mmHg 53%
    17:00 +32°C° 0 mm 6 m/s 757 mmHg 60%
    18:00 +30°C° 0 mm 6 m/s 758 mmHg 68%
    19:00 +28°C° 0 mm 5 m/s 758 mmHg 75%
    20:00 +28°C° 0 mm 5 m/s 758 mmHg 77%
    21:00 +28°C° 0 mm 5 m/s 759 mmHg 80%
    22:00 +27°C° 0 mm 5 m/s 759 mmHg 82%
    23:00 +27°C° 0 mm 4 m/s 759 mmHg 83%

    Depois de amanhã, 24 Novembro, Sexta-feira

    Tempo Temperatura Precipitação Vento Pressão Humidade
    00:00 +27°C° 0 mm 4 m/s 759 mmHg 84%
    01:00 +26°C° 0 mm 4 m/s 758 mmHg 86%
    02:00 +26°C° 0 mm 4 m/s 758 mmHg 86%
    03:00 +26°C° 0 mm 4 m/s 758 mmHg 87%
    04:00 +26°C° 0 mm 4 m/s 758 mmHg 87%
    05:00 +27°C° 0 mm 4 m/s 758 mmHg 84%
    06:00 +27°C° 0 mm 5 m/s 759 mmHg 81%
    07:00 +28°C° 0 mm 5 m/s 759 mmHg 78%
    08:00 +29°C° 0 mm 5 m/s 759 mmHg 71%
    09:00 +30°C° 0 mm 6 m/s 760 mmHg 64%
    10:00 +33°C° 0 mm 6 m/s 760 mmHg 57%
    11:00 +34°C° 0 mm 6 m/s 760 mmHg 54%
    12:00 +34°C° 0 mm 6 m/s 759 mmHg 51%
    13:00 +35°C° 0 mm 6 m/s 759 mmHg 48%
    14:00 +35°C° 0 mm 6 m/s 759 mmHg 49%
    15:00 +34°C° 0 mm 6 m/s 758 mmHg 50%
    16:00 +34°C° 0 mm 6 m/s 758 mmHg 51%
    17:00 +33°C° 0 mm 5 m/s 758 mmHg 59%
    18:00 +30°C° 0 mm 5 m/s 758 mmHg 67%
    19:00 +28°C° 0 mm 5 m/s 759 mmHg 74%
    20:00 +28°C° 0 mm 5 m/s 759 mmHg 78%
    21:00 +27°C° 0 mm 6 m/s 759 mmHg 81%
    22:00 +27°C° 0 mm 6 m/s 760 mmHg 84%
    23:00 +27°C° 0 mm 6 m/s 759 mmHg 85%

    25 Novembro, Sábado

    Tempo Temperatura Precipitação Vento Pressão Humidade
    00:00 +27°C° 0 mm 5 m/s 759 mmHg 86%
    01:00 +26°C° 0 mm 5 m/s 759 mmHg 87%
    02:00 +26°C° 0,1 mm 5 m/s 759 mmHg 88%
    03:00 +26°C° 0,1 mm 5 m/s 758 mmHg 89%
    04:00 +26°C° 0,1 mm 5 m/s 758 mmHg 90%
    05:00 +26°C° 0,1 mm 5 m/s 759 mmHg 87%
    06:00 +27°C° 0,1 mm 5 m/s 759 mmHg 83%
    07:00 +28°C° 0,1 mm 6 m/s 759 mmHg 80%
    08:00 +29°C° 0 mm 6 m/s 760 mmHg 71%
    09:00 +32°C° 0 mm 7 m/s 760 mmHg 61%
    10:00 +34°C° 0 mm 7 m/s 760 mmHg 52%
    11:00 +35°C° 0 mm 7 m/s 760 mmHg 49%
    12:00 +35°C° 0 mm 7 m/s 759 mmHg 47%
    13:00 +37°C° 0 mm 8 m/s 759 mmHg 44%
    14:00 +35°C° 0 mm 7 m/s 758 mmHg 46%
    15:00 +35°C° 0 mm 7 m/s 757 mmHg 49%
    16:00 +34°C° 0 mm 7 m/s 757 mmHg 51%
    17:00 +32°C° 0 mm 7 m/s 757 mmHg 59%
    18:00 +30°C° 0 mm 6 m/s 758 mmHg 66%
    19:00 +28°C° 0 mm 6 m/s 758 mmHg 74%
    20:00 +28°C° 0 mm 6 m/s 758 mmHg 77%
    21:00 +27°C° 0 mm 6 m/s 759 mmHg 79%
    22:00 +27°C° 0 mm 5 m/s 759 mmHg 82%
    23:00 +27°C° 0 mm 5 m/s 759 mmHg 83%

    26 Novembro, Domingo

    Tempo Temperatura Precipitação Vento Pressão Humidade
    00:00 +27°C° 0 mm 5 m/s 758 mmHg 84%
    01:00 +26°C° 0 mm 5 m/s 758 mmHg 85%
    02:00 +26°C° 0,1 mm 5 m/s 758 mmHg 85%
    03:00 +26°C° 0,1 mm 5 m/s 757 mmHg 86%
    04:00 +26°C° 0,1 mm 5 m/s 757 mmHg 86%
    05:00 +26°C° 0,1 mm 5 m/s 758 mmHg 83%
    06:00 +27°C° 0,1 mm 5 m/s 758 mmHg 80%
    07:00 +27°C° 0,1 mm 6 m/s 759 mmHg 77%
    08:00 +29°C° 0,1 mm 6 m/s 759 mmHg 68%
    09:00 +32°C° 0,1 mm 6 m/s 759 mmHg 58%
    10:00 +34°C° 0,1 mm 7 m/s 760 mmHg 49%
    11:00 +34°C° 0 mm 7 m/s 759 mmHg 49%
    12:00 +34°C° 0 mm 7 m/s 759 mmHg 49%
    13:00 +34°C° 0 mm 7 m/s 758 mmHg 49%
    14:00 +34°C° 0 mm 7 m/s 758 mmHg 50%
    15:00 +34°C° 0 mm 7 m/s 757 mmHg 51%
    16:00 +34°C° 0 mm 7 m/s 757 mmHg 52%
    17:00 +32°C° 0 mm 7 m/s 757 mmHg 58%
    18:00 +30°C° 0 mm 7 m/s 758 mmHg 65%
    19:00 +28°C° 0 mm 6 m/s 758 mmHg 71%
    20:00 +28°C° 0 mm 6 m/s 759 mmHg 73%
    21:00 +28°C° 0 mm 6 m/s 759 mmHg 76%
    22:00 +27°C° 0 mm 6 m/s 759 mmHg 78%
    23:00 +27°C° 0 mm 6 m/s 759 mmHg 80%

    27 Novembro, Segunda-feira

    Tempo Temperatura Precipitação Vento Pressão Humidade
    00:00 +27°C° 0 mm 5 m/s 758 mmHg 81%
    01:00 +27°C° 0 mm 5 m/s 758 mmHg 83%
    02:00 +26°C° 0 mm 5 m/s 758 mmHg 84%
    03:00 +26°C° 0 mm 5 m/s 758 mmHg 85%
    04:00 +26°C° 0 mm 5 m/s 758 mmHg 86%
    05:00 +26°C° 0 mm 5 m/s 758 mmHg 84%
    06:00 +27°C° 0 mm 6 m/s 759 mmHg 81%
    07:00 +27°C° 0 mm 6 m/s 759 mmHg 79%
    08:00 +29°C° 0 mm 6 m/s 759 mmHg 71%
    09:00 +30°C° 0 mm 6 m/s 760 mmHg 64%
    10:00 +33°C° 0 mm 7 m/s 760 mmHg 56%
    11:00 +34°C° 0 mm 7 m/s 760 mmHg 53%
    12:00 +34°C° 0 mm 7 m/s 759 mmHg 49%
    13:00 +35°C° 0 mm 7 m/s 759 mmHg 46%
    14:00 +35°C° 0 mm 7 m/s 758 mmHg 48%
    15:00 +34°C° 0 mm 7 m/s 758 mmHg 49%
    16:00 +34°C° 0 mm 7 m/s 758 mmHg 51%
    17:00 +32°C° 0 mm 7 m/s 758 mmHg 58%
    18:00 +30°C° 0 mm 6 m/s 758 mmHg 65%
    19:00 +28°C° 0 mm 6 m/s 759 mmHg 72%
    20:00 +28°C° 0 mm 5 m/s 759 mmHg 74%
    21:00 +27°C° 0 mm 5 m/s 759 mmHg 77%
    22:00 +27°C° 0 mm 5 m/s 759 mmHg 79%
    23:00 +27°C° 0 mm 5 m/s 759 mmHg 81%
    Mostrar mais